E0445 Weather Reports


Display with metric or nautical units.
time (UTC)temp
F
wind
direction
speed
MPH
gust
MPH
rain 1hr
in
rain 24hr
in
rain mn
in
humidity
%
barometer
mb
20260505074012 55 178 0.0 4.0 0.00 0.00 0.00 72 1007.8
20260505073509 55 0 0.0 4.0 0.00 0.00 0.00 71 1007.8
20260505073030 55 184 0.0 3.0 0.00 0.00 0.00 73 1007.8
20260505072511 55 175 1.0 3.0 0.00 0.00 0.00 73 1008.0
20260505072009 55 0 0.0 2.0 0.00 0.00 0.00 72 1008.0
20260505071529 56 0 1.0 2.0 0.00 0.00 0.00 68 1008.0
20260505071013 56 0 0.0 3.0 0.00 0.00 0.00 68 1007.9
20260505070513 56 175 0.0 3.0 0.00 0.00 0.00 66 1008.0
20260505070030 57 175 1.0 3.0 0.00 0.00 0.00 66 1007.9
20260505065513 57 175 1.0 4.0 0.00 0.00 0.00 65 1007.9
20260505065013 57 193 1.0 4.0 0.00 0.00 0.00 66 1008.0
20260505064527 57 193 1.0 6.0 0.00 0.00 0.00 66 1008.1
20260505064011 56 189 2.0 6.0 0.00 0.00 0.00 66 1008.1
20260505063512 56 195 0.0 4.0 0.00 0.00 0.00 67 1008.0
20260505063029 56 195 1.0 5.0 0.00 0.00 0.00 66 1008.1
20260505062511 56 195 1.0 5.0 0.00 0.00 0.00 66 1008.0
20260505062010 57 204 2.0 4.0 0.00 0.00 0.00 65 1008.1
20260505061529 57 177 1.0 4.0 0.00 0.00 0.00 65 1008.2
20260505061013 57 178 1.0 4.0 0.00 0.00 0.00 65 1008.1
20260505060511 57 178 1.0 4.0 0.00 0.00 0.00 64 1008.3
20260505060026 57 184 1.0 6.0 0.00 0.00 0.00 63 1008.2
20260505055511 57 182 2.0 6.0 0.00 0.00 0.00 63 1008.2
20260505055013 57 164 1.0 6.0 0.00 0.00 0.00 63 1008.3
20260505054541 57 178 2.0 7.0 0.00 0.00 0.00 63 1008.3
20260505054015 58 187 3.0 7.0 0.00 0.00 0.00 63 1008.4
20260505053513 58 178 2.0 6.0 0.00 0.00 0.00 64 1008.4
20260505053029 58 195 3.0 6.0 0.00 0.00 0.00 62 1008.4
20260505052512 58 209 3.0 6.0 0.00 0.00 0.00 62 1008.3
20260505052012 58 190 2.0 6.0 0.00 0.00 0.00 63 1008.4
20260505051528 58 166 3.0 8.0 0.00 0.00 0.00 62 1008.3
20260505051014 58 184 1.0 8.0 0.00 0.00 0.00 62 1008.4
20260505050514 59 201 3.0 8.0 0.00 0.00 0.00 60 1008.3
20260505041531 57 177 2.0 6.0 0.00 0.00 0.00 65 1008.0
20260505041013 56 207 2.0 6.0 0.00 0.00 0.00 66 1008.1
20260505040513 56 180 1.0 4.0 0.00 0.00 0.00 67 1008.1
20260505040040 56 182 2.0 4.0 0.00 0.00 0.00 67 1008.0
20260505035514 55 0 0.0 1.0 0.00 0.00 0.00 68 1008.0
20260505035013 55 0 0.0 0.0 0.00 0.00 0.00 67 1008.0
20260505034536 55 0 0.0 3.0 0.00 0.00 0.00 68 1008.0
20260505034013 55 0 0.0 3.0 0.00 0.00 0.00 68 1008.0
20260505033513 56 0 0.0 3.0 0.00 0.00 0.00 67 1007.9
20260505033030 57 174 1.0 4.0 0.00 0.00 0.00 64 1007.8
20260505032513 58 174 2.0 5.0 0.00 0.00 0.00 62 1007.9
20260505032013 57 174 1.0 5.0 0.00 0.00 0.00 63 1008.0
20260505031533 57 174 1.0 5.0 0.00 0.00 0.00 64 1008.1
20260505031013 57 179 1.0 3.0 0.00 0.00 0.00 62 1008.1
20260505030513 58 0 0.0 5.0 0.00 0.00 0.00 61 1008.1
20260505030028 59 182 1.0 5.0 0.00 0.00 0.00 59 1008.1
20260505025516 59 185 2.0 5.0 0.00 0.00 0.00 59 1008.1
20260505025011 59 171 2.0 6.0 0.00 0.00 0.00 60 1008.3
20260505024528 58 171 1.0 6.0 0.00 0.00 0.00 61 1008.3
20260505024012 57 165 1.0 4.0 0.00 0.00 0.00 63 1008.3
20260505023512 57 0 0.0 3.0 0.00 0.00 0.00 65 1008.3
20260505023028 58 0 1.0 5.0 0.00 0.00 0.00 63 1008.3
20260505022510 58 166 1.0 6.0 0.00 0.00 0.00 61 1008.3
20260505022011 59 166 2.0 6.0 0.00 0.00 0.00 58 1008.4
20260505021529 59 160 2.0 6.0 0.00 0.00 0.00 58 1008.4
20260505021016 60 191 1.0 4.0 0.00 0.00 0.00 56 1008.3
20260505020512 60 192 1.0 5.0 0.00 0.00 0.00 56 1008.3
20260505020037 61 192 2.0 6.0 0.00 0.00 0.00 55 1008.2
20260505015513 61 180 3.0 6.0 0.00 0.00 0.00 55 1008.2
20260505015016 61 179 2.0 7.0 0.00 0.00 0.00 55 1008.2
20260505014530 62 177 2.0 7.0 0.00 0.00 0.00 53 1008.2
20260505014014 62 191 2.0 6.0 0.00 0.00 0.00 53 1008.2
20260505013512 62 195 2.0 12.0 0.00 0.00 0.00 53 1008.0
20260505013030 63 169 3.0 12.0 0.00 0.00 0.00 52 1008.0
20260505012512 63 171 5.0 11.0 0.00 0.00 0.00 52 1008.0
20260505012012 63 188 3.0 10.0 0.00 0.00 0.00 52 1008.0
20260505011530 63 187 5.0 10.0 0.00 0.00 0.00 51 1008.0
20260505011013 63 207 5.0 11.0 0.00 0.00 0.00 51 1008.0
20260505010509 64 180 7.0 11.0 0.00 0.00 0.00 51 1007.9
20260505010027 63 159 5.0 10.0 0.00 0.00 0.00 50 1007.9
20260505005509 63 192 4.0 10.0 0.00 0.00 0.00 51 1007.9
20260505005012 64 201 5.0 10.0 0.00 0.00 0.00 50 1007.8
20260505004528 63 199 5.0 10.0 0.00 0.00 0.00 50 1007.7
20260505004010 63 192 5.0 10.0 0.00 0.00 0.00 50 1007.7
20260505003516 64 188 3.0 10.0 0.00 0.00 0.00 50 1007.6
20260505003027 64 182 6.0 10.0 0.00 0.00 0.00 49 1007.4
20260505002512 64 179 3.0 12.0 0.00 0.00 0.00 50 1007.3
20260505002013 64 173 4.0 13.0 0.00 0.00 0.00 49 1007.2
20260505001528 63 195 5.0 13.0 0.00 0.00 0.00 50 1007.2
20260505001012 63 190 2.0 7.0 0.00 0.00 0.00 51 1007.3
20260505000513 63 220 3.0 7.0 0.00 0.00 0.00 50 1007.3
20260505000042 64 189 2.0 5.0 0.00 0.00 0.00 49 1007.1
20260504235510 64 184 1.0 10.0 0.00 0.00 0.00 50 1007.1
20260504235012 65 184 2.0 10.0 0.00 0.00 0.00 50 1007.1
20260504234528 65 181 4.0 9.0 0.00 0.00 0.00 47 1007.1
20260504234012 65 196 5.0 9.0 0.00 0.00 0.00 47 1007.0
20260504233512 65 163 3.0 7.0 0.00 0.00 0.00 47 1007.0
20260504233030 66 190 4.0 8.0 0.00 0.00 0.00 47 1006.9
20260504232511 66 198 3.0 10.0 0.00 0.00 0.00 46 1007.0
20260504232012 67 216 5.0 16.0 0.00 0.00 0.00 45 1006.9
20260504231530 67 204 6.0 16.0 0.00 0.00 0.00 46 1007.0
20260504231019 67 203 5.0 11.0 0.00 0.00 0.00 44 1006.9
20260504230511 68 205 5.0 13.0 0.00 0.00 0.00 43 1006.8
20260504230028 68 185 7.0 13.0 0.00 0.00 0.00 43 1006.7
20260504225514 68 201 6.0 11.0 0.00 0.00 0.00 43 1006.8
20260504225012 68 225 5.0 11.0 0.00 0.00 0.00 43 1006.7
20260504224528 68 243 3.0 11.0 0.00 0.00 0.00 45 1006.7
20260504224013 69 188 5.0 14.0 0.00 0.00 0.00 43 1006.6
20260504223512 69 230 5.0 14.0 0.00 0.00 0.00 43 1006.7
20260504223028 69 174 6.0 16.0 0.00 0.00 0.00 41 1006.7
20260504222511 69 215 7.0 17.0 0.00 0.00 0.00 42 1006.6
20260504222010 69 213 11.0 17.0 0.00 0.00 0.00 41 1006.6
20260504221529 69 194 7.0 16.0 0.00 0.00 0.00 42 1006.6
20260504221011 69 223 9.0 16.0 0.00 0.00 0.00 41 1006.7
20260504220513 69 184 7.0 15.0 0.00 0.00 0.00 43 1006.7
20260504220042 69 169 8.0 19.0 0.00 0.00 0.00 42 1006.8
20260504215513 69 186 10.0 16.0 0.00 0.00 0.00 41 1006.6
20260504215013 69 173 7.0 13.0 0.00 0.00 0.00 42 1006.5
20260504214534 69 178 4.0 18.0 0.00 0.00 0.00 41 1006.5
20260504214012 69 180 8.0 18.0 0.00 0.00 0.00 40 1006.6
20260504213512 69 161 6.0 11.0 0.00 0.00 0.00 43 1006.7
20260504213031 69 173 6.0 13.0 0.00 0.00 0.00 43 1006.7
20260504212511 69 242 5.0 18.0 0.00 0.00 0.00 44 1006.7
20260504212011 69 205 6.0 18.0 0.00 0.00 0.00 43 1006.8
20260504211536 69 150 7.0 16.0 0.00 0.00 0.00 42 1006.9
20260504211012 69 252 6.0 17.0 0.00 0.00 0.00 43 1007.0
20260504210512 68 169 8.0 17.0 0.00 0.00 0.00 44 1007.1
20260504210026 68 200 7.0 12.0 0.00 0.00 0.00 43 1007.0
20260504205512 68 221 8.0 14.0 0.00 0.00 0.00 42 1007.2
20260504205012 69 217 6.0 14.0 0.00 0.00 0.00 43 1007.1
20260504204538 68 215 5.0 11.0 0.00 0.00 0.00 41 1007.1
20260504204015 68 256 5.0 10.0 0.00 0.00 0.00 43 1007.3
20260504203514 68 242 3.0 15.0 0.00 0.00 0.00 40 1007.4
20260504203028 69 190 6.0 15.0 0.00 0.00 0.00 42 1007.4
20260504202513 69 215 6.0 12.0 0.00 0.00 0.00 40 1007.6
20260504202012 69 171 4.0 15.0 0.00 0.00 0.00 43 1007.6
20260504201528 69 239 6.0 15.0 0.00 0.00 0.00 43 1007.7
20260504201009 68 202 6.0 18.0 0.00 0.00 0.00 42 1007.7
20260504200513 68 185 10.0 18.0 0.00 0.00 0.00 41 1007.8
20260504200030 69 184 6.0 18.0 0.00 0.00 0.00 42 1007.9
20260504195511 68 200 5.0 13.0 0.00 0.00 0.00 41 1007.9
20260504195012 68 254 5.0 10.0 0.00 0.00 0.00 45 1007.9
20260504194528 67 227 5.0 14.0 0.00 0.00 0.00 44 1008.0
20260504194013 67 202 6.0 22.0 0.00 0.00 0.00 44 1008.0
20260504193512 67 246 6.0 22.0 0.00 0.00 0.00 40 1008.1
20260504193030 67 227 8.0 20.0 0.00 0.00 0.00 41 1008.1
20260504192514 67 200 5.0 16.0 0.00 0.00 0.00 42 1008.2
20260504192013 68 226 8.0 17.0 0.00 0.00 0.00 41 1008.3
20260504191529 67 202 7.0 18.0 0.00 0.00 0.00 43 1008.2
20260504191014 68 188 7.0 18.0 0.00 0.00 0.00 43 1008.4
20260504190514 67 211 6.0 16.0 0.00 0.00 0.00 42 1008.5
20260504190030 66 218 5.0 16.0 0.00 0.00 0.00 48 1008.5
20260504185512 66 209 9.0 16.0 0.00 0.00 0.00 46 1008.5
20260504185016 65 209 6.0 11.0 0.00 0.00 0.00 46 1008.5
20260504184527 66 200 5.0 12.0 0.00 0.00 0.00 46 1008.5
20260504184015 65 219 6.0 16.0 0.00 0.00 0.00 48 1008.6
20260504183030 65 184 7.0 16.0 0.00 0.00 0.00 45 1008.6
20260504182509 65 248 8.0 19.0 0.00 0.00 0.00 47 1008.7
20260504182010 65 179 11.0 19.0 0.00 0.00 0.00 43 1008.7
20260504181531 66 232 7.0 20.0 0.00 0.00 0.00 45 1008.6
20260504181010 65 221 8.0 20.0 0.00 0.00 0.00 44 1008.7
20260504180511 66 180 4.0 14.0 0.00 0.00 0.00 48 1008.8
20260504180028 67 244 6.0 19.0 0.00 0.00 0.00 43 1008.7
20260504175512 66 239 7.0 19.0 0.00 0.00 0.00 44 1008.8
20260504175015 65 204 8.0 18.0 0.00 0.00 0.00 42 1008.8
20260504174530 66 204 6.0 18.0 0.00 0.00 0.00 47 1008.9
20260504174010 65 200 8.0 17.0 0.00 0.00 0.00 46 1008.8
20260504173512 65 189 5.0 18.0 0.00 0.00 0.00 47 1008.9
20260504173030 65 211 8.0 18.0 0.00 0.00 0.00 47 1008.9
20260504172512 66 209 6.0 13.0 0.00 0.00 0.00 43 1009.1
20260504172012 65 266 7.0 13.0 0.00 0.00 0.00 47 1009.3
20260504171528 64 230 6.0 11.0 0.00 0.00 0.00 44 1009.3
20260504171012 65 194 4.0 13.0 0.00 0.00 0.00 45 1009.2
20260504170512 65 175 8.0 16.0 0.00 0.00 0.00 49 1009.3
20260504151013 60 162 10.0 19.0 0.00 0.00 0.00 46 1010.7
20260504150517 60 183 9.0 17.0 0.00 0.00 0.00 50 1010.7
20260504141012 56 192 7.0 17.0 0.00 0.00 0.00 51 1011.0
20260504140510 56 227 8.0 17.0 0.00 0.00 0.00 50 1011.1
20260504130509 52 213 7.0 12.0 0.00 0.00 0.00 57 1011.5
20260504110512 41 190 1.0 3.0 0.00 0.00 0.00 74 1011.8
20260504100513 35 0 0.0 2.0 0.00 0.00 0.00 84 1011.6
20260504081530 35 355 0.0 3.0 0.00 0.00 0.00 85 1011.9
20260504081013 35 355 1.0 3.0 0.00 0.00 0.00 84 1011.9
20260504080513 35 355 0.0 2.0 0.00 0.00 0.00 85 1011.9